Starlink 31899

operational
NORAD ID: 59850 Int'l Des: 2024-097 Owner: SPXS Country: US Constellation: starlink
LEOCIRCULAR

About Starlink 31899

Description loading...

Live Position

Loading 3D Globe...

Upcoming Passes

Altitude History

Altitude vs Time

uPlot chart will show altitude changes over time

Two-Line Element Set

1 59850U 24097R 25344.60753143 -.00005531 00000-0 -19179-3 0 9992
2 59850 43.0008 57.3794 0001168 260.7805 99.2914 15.27552871 88297
Epoch: Dec 10, 2025 • Age: 16 hours

Current Status

Altitude 486.8 km
Velocity 7.63 km/s
Sub-Earth Point 41.73°N, 19.52°W
Launch Date May 23, 2024
Age 1.5 years
Type internet

Technical Details

Classification Payload
Mass 730.00 kg
Dry Mass 700.00 kg
Total Mass 730.00 kg
Length 0.30 m
Diameter 4.10 m
Span 29.00 m
Shape Box + pan
Manufacturer SPXS
Bus Type Starlink V2M
Phase Status In Orbit
Owner/State SPXS/US

Large Constellations

Loading constellations...